Location: ???????
(55.4362°N, 38.1183°E)
Time: 11:24:13
(UTC+00:00)

deb Delta 139 - Pass Details

Date: 03 February 2022
Orbit: 790 x 1093 km, 98.7° (Epoch: 23 May)

Event Time Altitude Azimuth Distance (km) Brightness Sun altitude
Rises 03:15:25 0° 18° (NNE) 3,737 ? -17.2°
Reaches altitude 10° 03:17:58 10° 23° (NNE) 2,822 ? -16.8°
Maximum altitude 03:24:13 51° 99° (E) 1,325 ? -16.0°
Drops below altitude 10° 03:30:42 10° 174° (S) 2,931 ? -15.1°
Sets 03:33:22 0° 179° (S) 3,893 ? -14.7°
